{"data":{"norad_id":61579,"epoch":"2026-05-24T17:01:45.667776Z","epoch_age_seconds":90304,"freshness":"FRESH","line1":"1 61579U 24187F   26144.70955634 -.00000333  00000+0  21058-5 0  9996","line2":"2 61579  53.1581 281.2389 0000889  82.6458 277.4661 15.69705426 92643","mean_motion":15.69705426,"eccentricity":8.89e-5,"inclination_deg":53.1581,"raan_deg":281.2389,"arg_perigee_deg":82.6458,"mean_anomaly_deg":277.4661,"bstar":2.1058e-6,"rev_number":9264,"period_min":91.736957530272,"perigee_km":359.1408422377,"apogee_km":360.33883673976,"semimajor_km":6737.8768394887,"source":"CELESTRAK","updated_at":"2026-05-25T13:38:19.402767Z"}}